Location: Caltech
(34.1382°N, 118.1253°W)
Time: 08:49:57
(UTC-07:00)

A-11 Canister half - All Passes

Search period start: 21 August 2017 00:00
Search period end: 31 August 2017 00:00
Orbit: 1516 x 1684 km, 47.2° (Epoch: 20 August)

Date Brightness Start Highest point End Pass type
(mag) Time Alt. Az. Time Alt. Az. Time Alt. Az.
21 Aug - 00:16:38 10° SSW 00:25:44 58° SE 00:35:09 10° ENE visible
21 Aug - 02:21:32 10° WSW 02:30:49 56° NNW 02:40:29 10° NE visible
21 Aug - 04:28:48 10° WNW 04:37:42 38° N 04:46:52 10° ENE visible
21 Aug - 06:34:55 10° NW 06:44:39 55° NNE 06:54:33 10° E daylight
21 Aug - 08:40:07 10° WNW 08:49:58 63° SW 08:59:55 10° SE daylight
21 Aug - 10:48:41 10° W 10:53:40 15° WSW 10:58:40 10° SSW daylight
21 Aug - 21:58:11 10° SE 21:59:33 10° ESE 22:00:54 10° ESE night (unlit)
21 Aug - 23:53:52 10° SSW 00:02:52 55° SE 00:12:10 10° ENE visible
22 Aug - 01:58:33 10° WSW 02:07:51 58° NNW 02:17:32 10° NE visible
22 Aug - 04:05:47 10° WNW 04:14:38 38° N 04:23:46 10° ENE visible
22 Aug - 06:11:59 10° NW 06:21:38 53° NNE 06:31:28 10° E daylight
22 Aug - 08:17:09 10° WNW 08:27:03 67° SW 08:37:05 10° SE daylight
22 Aug - 10:25:11 10° W 10:30:50 17° WSW 10:36:30 10° SSW daylight
22 Aug - 23:31:08 10° SSW 23:40:00 51° SE 23:49:10 10° ENE visible
23 Aug - 01:35:34 10° WSW 01:44:52 60° NNW 01:54:34 10° NE visible
23 Aug - 03:42:45 10° WNW 03:51:35 38° N 04:00:42 10° ENE visible
23 Aug - 05:49:03 10° NW 05:58:37 51° NNE 06:08:23 10° E visible
23 Aug - 07:54:12 10° WNW 08:04:08 70° SW 08:14:13 10° SE daylight
23 Aug - 10:01:47 10° W 10:07:59 18° WSW 10:14:13 10° SSW daylight
23 Aug - 23:08:25 10° SSW 23:17:09 47° SE 23:26:10 10° ENE visible
24 Aug - 01:12:36 10° WSW 01:21:54 63° NNW 01:31:36 10° NE visible
24 Aug - 03:19:44 10° WNW 03:28:32 38° N 03:37:38 10° ENE visible
24 Aug - 05:26:08 10° NW 05:35:36 49° NNE 05:45:19 10° E visible
24 Aug - 07:31:16 10° WNW 07:41:13 74° SW 07:51:20 10° SE daylight
24 Aug - 09:38:29 10° W 09:45:09 20° SW 09:51:52 10° SSW daylight
24 Aug - 22:45:42 10° SSW 22:54:19 44° SE 23:03:08 10° ENE visible
25 Aug - 00:49:38 10° WSW 00:58:57 66° NNW 01:08:38 10° NE visible
25 Aug - 02:56:42 10° WNW 03:05:29 38° N 03:14:34 10° ENE visible
25 Aug - 05:03:11 10° NW 05:12:35 48° NNE 05:22:13 10° E visible
25 Aug - 07:08:20 10° NW 07:18:17 79° SW 07:28:26 10° SE daylight
25 Aug - 09:15:13 10° W 09:22:17 22° SW 09:29:26 10° S daylight
25 Aug - 22:23:01 10° SSW 22:31:28 41° SE 22:40:07 10° ENE visible
26 Aug - 00:26:41 10° WSW 00:36:01 69° NNW 00:45:42 10° NE visible
26 Aug - 02:33:40 10° WNW 02:42:27 39° N 02:51:32 10° ENE visible
26 Aug - 04:40:15 10° NW 04:49:34 46° NNE 04:59:07 10° E visible
26 Aug - 06:45:24 10° NW 06:55:21 83° SW 07:05:32 10° SE daylight
26 Aug - 08:52:01 10° WNW 08:59:27 24° SW 09:06:58 10° S daylight
26 Aug - 22:00:21 10° SSW 22:08:38 38° SE 22:17:06 10° ENE visible
27 Aug - 00:03:45 10° WSW 00:13:04 72° NNW 00:22:45 10° NE visible
27 Aug - 02:10:39 10° WNW 02:19:24 39° N 02:28:29 10° ENE visible
27 Aug - 04:17:18 10° NW 04:26:32 45° NNE 04:36:01 10° E visible
27 Aug - 06:22:28 10° NW 06:32:26 87° SW 06:42:36 10° SE daylight
27 Aug - 08:28:51 10° WNW 08:36:35 26° SW 08:44:26 10° S daylight
27 Aug - 21:37:43 10° S 21:45:48 35° SE 21:54:03 10° ENE visible
27 Aug - 23:40:49 10° WSW 23:50:08 75° NNW 23:59:48 10° NE visible
28 Aug - 01:47:37 10° WNW 01:56:23 40° N 02:05:27 10° ENE visible
28 Aug - 03:54:21 10° NW 04:03:30 44° NNE 04:12:55 10° E visible
28 Aug - 05:59:33 10° NW 06:09:29 89° NE 06:19:39 10° SE visible
28 Aug - 08:05:43 10° WNW 08:13:43 28° SW 08:21:52 10° S daylight
28 Aug - 21:15:06 10° S 21:22:59 32° SE 21:30:59 10° ENE visible
28 Aug - 23:17:54 10° WSW 23:27:13 79° NW 23:36:52 10° NE visible
29 Aug - 01:24:35 10° W 01:33:21 40° N 01:42:26 10° ENE visible
29 Aug - 03:31:25 10° NW 03:40:28 42° NNE 03:49:49 10° E visible
29 Aug - 05:36:38 10° NW 05:46:32 85° NE 05:56:42 10° SE visible
29 Aug - 07:42:37 10° WNW 07:50:52 31° SW 07:59:16 10° S daylight
29 Aug - 20:52:31 10° S 21:00:09 30° SE 21:07:54 10° ENE visible
29 Aug - 22:55:00 10° SW 23:04:18 83° NW 23:13:55 10° NE visible
30 Aug - 01:01:33 10° W 01:10:20 41° NNW 01:19:24 10° NE visible
30 Aug - 03:08:27 10° NW 03:17:26 41° NNE 03:26:43 10° E visible
30 Aug - 05:13:44 10° NW 05:23:35 82° NE 05:33:43 10° ESE visible
30 Aug - 07:19:32 10° WNW 07:28:00 33° SW 07:36:37 10° S daylight
30 Aug - 20:29:57 10° S 20:37:20 28° SE 20:44:48 10° ENE visible
30 Aug - 22:32:05 10° SW 22:41:23 87° NW 22:50:59 10° NE visible
